W3UGI Weather Reports


Display with metric or nautical units.
time (UTC)temp
F
wind
direction
speed
MPH
gust
MPH
rain 1hr
in
rain 24hr
in
rain mn
in
humidity
%
barometer
mb
20260506191827 63 221 0.0 9.0 0.00 0.12 0.12 88 1007.1
20260506190339 63 211 3.0 8.0 0.00 0.12 0.12 88 1007.4
20260506184831 63 187 2.0 12.0 0.00 0.12 0.12 88 1007.4
20260506183327 63 219 7.0 13.0 0.00 0.12 0.12 89 1007.6
20260506181820 63 220 3.0 11.0 0.00 0.12 0.12 89 1007.7
20260506180318 62 188 5.0 13.0 0.00 0.12 0.12 89 1007.6
20260506174832 62 232 4.0 10.0 0.00 0.12 0.12 89 1007.8
20260506173323 62 244 6.0 14.0 0.00 0.12 0.12 89 1007.8
20260506171816 62 223 5.0 10.0 0.01 0.12 0.12 88 1008.0
20260506170331 62 229 4.0 11.0 0.02 0.12 0.12 88 1007.9
20260506164817 62 183 4.0 8.0 0.05 0.12 0.12 88 1008.0
20260506163349 62 215 4.0 9.0 0.07 0.12 0.12 88 1008.1
20260506161825 62 222 3.0 6.0 0.08 0.11 0.11 88 1008.4
20260506160339 62 216 0.0 4.0 0.09 0.10 0.10 88 1009.1
20260506154831 62 217 3.0 7.0 0.07 0.07 0.07 88 1009.4
20260506153326 63 224 1.0 4.0 0.05 0.05 0.05 88 1009.2
20260506151820 63 217 2.0 12.0 0.02 0.02 0.02 86 1009.3
20260506150315 64 227 1.0 4.0 0.01 0.01 0.01 84 1009.2
20260506144827 65 209 3.0 7.0 0.00 0.00 0.00 82 1009.1
20260506143323 66 221 3.0 11.0 0.00 0.00 0.00 77 1009.2
20260506141831 67 184 3.0 14.0 0.00 0.00 0.00 74 1009.2
20260506140330 67 193 6.0 16.0 0.00 0.00 0.00 73 1009.1
20260506134824 67 231 6.0 16.0 0.00 0.00 0.00 75 1008.8
20260506133322 66 186 6.0 11.0 0.00 0.00 0.00 76 1009.1
20260506131826 67 219 5.0 13.0 0.00 0.00 0.00 75 1009.1
20260506130319 67 213 10.0 18.0 0.00 0.00 0.00 74 1009.4
20260506124834 67 187 3.0 15.0 0.00 0.00 0.00 76 1009.2
20260506123344 66 190 4.0 14.0 0.00 0.00 0.00 78 1009.3
20260506121817 65 219 4.0 11.0 0.00 0.00 0.00 79 1009.1
20260506120352 65 224 4.0 9.0 0.00 0.00 0.00 80 1009.2
20260506114901 64 202 2.0 9.0 0.00 0.00 0.00 80 1009.1
20260506114830 64 202 2.0 9.0 0.00 0.00 0.00 80 1009.1
20260506113326 64 222 5.0 13.0 0.00 0.00 0.00 81 1009.1
20260506111858 64 236 2.0 7.0 0.00 0.00 0.00 81 1009.1
20260506111827 64 236 2.0 7.0 0.00 0.00 0.00 81 1009.1
20260506110321 64 216 4.0 13.0 0.00 0.00 0.00 81 1008.9
20260506104831 64 219 3.0 9.0 0.00 0.00 0.00 82 1009.0
20260506103325 64 202 1.0 10.0 0.00 0.00 0.00 82 1008.9
20260506101821 64 175 1.0 6.0 0.00 0.00 0.00 82 1008.9
20260506100355 64 215 3.0 7.0 0.00 0.00 0.00 82 1009.0
20260506094825 64 211 3.0 9.0 0.00 0.00 0.00 81 1008.9
20260506093320 64 200 2.0 9.0 0.00 0.00 0.00 81 1008.7
20260506091829 65 194 2.0 9.0 0.00 0.00 0.00 81 1008.8
20260506090326 65 202 4.0 13.0 0.00 0.00 0.00 81 1008.8
20260506084839 65 168 1.0 7.0 0.00 0.00 0.00 81 1008.8
20260506083334 64 227 3.0 10.0 0.00 0.00 0.00 82 1009.0
20260506081824 64 217 3.0 7.0 0.00 0.00 0.00 82 1009.0
20260506080322 64 199 2.0 8.0 0.00 0.00 0.00 82 1009.1
20260506073336 65 214 1.0 6.0 0.00 0.00 0.00 80 1009.2
20260506071848 65 209 2.0 5.0 0.00 0.00 0.00 80 1009.3
20260506070357 65 221 2.0 6.0 0.00 0.00 0.00 79 1009.5
20260506061815 67 227 3.0 8.0 0.00 0.00 0.00 75 1009.6
20260506060326 67 205 2.0 8.0 0.00 0.00 0.00 75 1009.6
20260506050342 67 205 4.0 11.0 0.00 0.00 0.00 71 1009.9
20260506044851 67 217 5.0 12.0 0.00 0.00 0.00 70 1010.0
20260506043317 68 194 3.0 10.0 0.00 0.00 0.00 69 1010.0
20260506041826 68 217 3.0 10.0 0.00 0.00 0.00 68 1010.0
20260506040325 68 206 3.0 7.0 0.00 0.00 0.00 68 1010.0
20260506034818 69 217 3.0 13.0 0.00 0.00 0.00 67 1009.9
20260506033329 69 224 5.0 11.0 0.00 0.00 0.00 66 1009.8
20260506031821 69 213 2.0 9.0 0.00 0.00 0.00 66 1009.9
20260506030315 69 216 2.0 7.0 0.00 0.00 0.00 65 1009.9
20260506024828 69 234 4.0 11.0 0.00 0.00 0.00 64 1010.0
20260506023325 69 221 3.0 7.0 0.00 0.00 0.00 64 1010.0
20260506021857 70 218 3.0 9.0 0.00 0.00 0.00 61 1010.1
20260506021826 70 218 3.0 9.0 0.00 0.00 0.00 61 1010.1
20260506020319 71 189 1.0 6.0 0.00 0.00 0.00 59 1010.0
20260506014818 72 215 4.0 8.0 0.00 0.00 0.00 56 1009.9
20260506013349 72 216 2.0 7.0 0.00 0.00 0.00 53 1009.7
20260506011821 74 134 2.0 5.0 0.00 0.00 0.00 50 1009.6
20260506010315 74 217 3.0 12.0 0.00 0.00 0.00 48 1009.2
20260506004826 75 212 5.0 13.0 0.00 0.00 0.00 47 1009.2
20260506003324 75 142 3.0 16.0 0.00 0.00 0.00 46 1009.0
20260506001838 76 181 5.0 12.0 0.00 0.00 0.00 46 1008.9
20260506000330 76 146 5.0 14.0 0.00 0.00 0.00 46 1008.7
20260505234839 76 242 5.0 15.0 0.00 0.00 0.00 46 1008.6
20260505233347 77 188 4.0 17.0 0.00 0.00 0.00 46 1008.5
20260505231822 77 224 6.0 10.0 0.00 0.00 0.00 45 1008.4
20260505230334 78 242 6.0 14.0 0.00 0.00 0.00 44 1008.4
20260505224829 79 191 7.0 14.0 0.00 0.00 0.00 41 1008.3
20260505223324 80 213 10.0 22.0 0.00 0.00 0.00 38 1008.0
20260505221822 80 232 5.0 15.0 0.00 0.00 0.00 38 1008.0
20260505220316 80 205 4.0 17.0 0.00 0.00 0.00 36 1008.0
20260505214828 80 284 6.0 21.0 0.00 0.00 0.00 36 1008.0
20260505213325 80 190 9.0 21.0 0.00 0.00 0.00 36 1007.9
20260505211851 80 208 5.0 21.0 0.00 0.00 0.00 35 1007.9
20260505210323 80 209 8.0 17.0 0.00 0.00 0.00 34 1008.1
20260505204832 81 207 3.0 16.0 0.00 0.00 0.00 34 1007.8
20260505203344 81 259 2.0 12.0 0.00 0.00 0.00 34 1007.9
20260505201855 81 209 9.0 22.0 0.00 0.00 0.00 32 1008.0
20260505200346 82 188 5.0 14.0 0.00 0.00 0.00 33 1007.9
20260505194819 82 242 3.0 20.0 0.00 0.00 0.00 35 1008.0
20260505193351 82 205 12.0 22.0 0.00 0.00 0.00 33 1008.1